SES-8

Last updated on Tue Sep 22 2026 00:03:13 GMT+0000 (Coordinated Universal Time)

1 39460U 13071A 26264.08026221 -.00000274 00000+0 00000+0 0 9997 2 39460 0.0269 257.5121 0001982 256.3473 330.0311 1.00273720 45398
UTC large
Height (km)
Speed (km/s)
/
Latitude / Longitude
Inclination (degrees)
Orbital Period (minutes)
Azimuth
Elevation
Range (km)
Doppler Factor

Next 0 passes for location: London (51.5072 / 0.1276)

No passes found over London.
SES-8